Regional Weather Roundup
Issued by NWS

Home | Current Version | Previous Version | Graphics & Text | Print | Product List | Glossary On
Versions: 1 2 3 4 5 6 7 8 9 10 11 12 13 14 15 16 17 18 19 20 21 22 23 24 25 26 27 28 29 30 31 32 33 34 35 36 37 38 39 40 41 42 43 44 45 46 47 48 49 50
000
ASUS45 KCYS 231010
RWRWY

WYOMING REGIONAL WEATHER ROUNDUP
NATIONAL WEATHER SERVICE CHEYENNE WY
400 AM MDT WED JUL 23 2014

NOTE:  "FAIR" INDICATES FEW OR NO CLOUDS BELOW 12,000 FEET
WITH NO SIGNIFICANT WEATHER AND/OR OBSTRUCTIONS TO VISIBILITY.

WYZ001-231100-
YELLOWSTONE NATIONAL PARK

CITY           SKY/WX    TMP DP  RH WIND       PRES   REMARKS
LK YELLOWSTONE   N/A     43  40  89 NW3       30.42F
W YELLOWSTONE  NOT AVBL

$$
WYZ002>013-054>058-071-098>099-231100-
NORTHERN WYOMING

CITY           SKY/WX    TMP DP  RH WIND       PRES   REMARKS
JACKSON        PTCLDY    52  41  66 CALM      30.33S
CODY           PTCLDY    66  46  48 SW6       30.26R
GREYBULL       CLEAR     66  50  56 CALM      30.18S
WORLAND        PTCLDY    61  47  59 S6        30.21F
SHERIDAN       CLEAR     68  53  58 SE14      30.22F
BUFFALO        CLEAR     63  55  75 S12       30.33F
GILLETTE       CLEAR     64  56  75 SE9       30.29F
HULETT         FAIR      63  55  77 MISG      30.29
NEWCASTLE      FAIR      64  50  59 S6        30.33

$$
WYZ014>020-022>026-101>103-231100-
CENTRAL WYOMING

CITY           SKY/WX    TMP DP  RH WIND       PRES   REMARKS
BIG PINEY      PTCLDY    47  27  45 E5        30.38S
PINEDALE       MOSUNNY   45  37  76 W8        30.39S
DUBOIS         FAIR      52  32  46 NW8       30.41S
LANDER         CLEAR     68  34  28 W8        30.28S
RIVERTON       CLEAR     67  52  58 E13       30.28F
CASPER         CLEAR     58  54  86 N5        30.31S
DOUGLAS        CLEAR     67  58  72 SE10      30.30F

$$
WYZ021-027>030-104>119-231100-
SOUTHERN WYOMING

CITY           SKY/WX    TMP DP  RH WIND       PRES   REMARKS
EVANSTON       CLEAR     63  28  26 SE7       30.35F
KEMMERER       SUNNY     61  28  29 N6        30.38S
FORT BRIDGER   FAIR      62  28  28 W8        30.38S
ROCK SPRINGS   PTCLDY    70  22  16 NE5       30.34F
DIXON          FAIR      58  29  32 CALM      30.37R
RAWLINS        CLEAR     59  35  40 NE8       30.37S
SARATOGA       FAIR      66  37  34 SE14      30.39F
LARAMIE        CLEAR     61  58  90 S15       30.44S
CHEYENNE       PTCLDY    63  60  90 S13       30.39S
TORRINGTON     MOCLDY    68  63  84 E12       30.30R
PINE BLUFFS    CLOUDY    64  61  88 SE8       30.33F

$$



USA.gov is the U.S. government's official web portal to all federal, state and local government web resources and services.